Location: ??
(35.4824°N, 139.4679°E)
Time: 08:25:18
(UTC+00:00)

Nadezhda 4 Rocket - Pass Details

Date: 29 October 2020
Orbit: 951 x 991 km, 82.9° (Epoch: 02 December)

Event Time Altitude Azimuth Distance (km) Brightness Sun altitude
Rises 18:59:10 0° 194° (SSW) 3,607 6.8 -25.5°
Reaches altitude 10° 19:01:40 10° 197° (SSW) 2,666 6.1 -25.0°
Maximum altitude 19:07:42 63° 278° (W) 1,056 3.8 -23.8°
Drops below altitude 10° 19:13:47 10° 359° (N) 2,692 6.3 -22.5°
Sets 19:16:20 0° 3° (N) 3,646 7.0 -22.0°
